Cambridge, MD

4:12 PM EST on February 20, 2017 (GMT -0500)
Cambridge-Dorchester

Weather History for KCGE - March, 2013

Change the Weather History Date:

Wednesday, March 6, 2013

  Actual Average (KESN) Record (KESN)
Temperature  
Mean Temperature 37 °F -  
Max Temperature 41 °F 56 °F 79 °F (1961)
Min Temperature 33 °F 35 °F 14 °F (2015)
Degree Days  
Heating Degree Days 28    
Moisture  
Dew Point 35 °F    
Average Humidity 87    
Maximum Humidity 93    
Minimum Humidity 75    
Precipitation  
Precipitation 0.00 in - - ()
Sea Level Pressure  
Sea Level Pressure 29.63 in    
Wind  
Wind Speed 18 mph (NNE)    
Max Wind Speed 31 mph    
Max Gust Speed 44 mph    
Visibility 6 miles    
Events      
Averages and records for this station are not official NWS values.
T = Trace of Precipitation, MM = Missing Value Source: NWS Daily Summary

Daily Weather History Graph

Daily Weather History Graph

Search for Another Location

Airport or City:

Trip Planner

Search our weather history database for the weather conditions in past years. The results will help you decide how hot, cold, wet, or windy it might be!

Date:

Astronomy

Mar. 06, 2013 Rise Set
Actual Time 6:28 AM EST 6:02 PM EST
Civil Twilight 6:02 AM EST 6:29 PM EST
Nautical Twilight 5:31 AM EST 6:59 PM EST
Astronomical Twilight 5:00 AM EST 7:30 PM EST
Moon 2:32 AM EST (3/6) 12:44 PM EST (3/6)
Length of Visible Light 12h 26m
Length of Day
11h 33m
Waning Crescent, 30% of the Moon is Illuminated
Mar 6
Waning Crescent
Mar 11
New
Mar 19
First Quarter
Mar 27
Full
Apr 3
Last Quarter

Hourly Weather History & Observations

Time (EST) Temp. Windchill Dew Point Humidity Pressure Visibility Wind Dir Wind Speed Gust Speed Precip Events Conditions
1:04 AM 33.8 °F 26.4 °F 32.0 °F 93% 29.79 in 5.0 mi ENE 9.2 mph - N/A   Overcast
2:45 AM 35.6 °F 26.6 °F 33.8 °F 93% 29.68 in 5.0 mi East 13.8 mph 21.9 mph N/A   Overcast
3:05 AM 35.6 °F 26.2 °F 33.8 °F 93% 29.67 in 5.0 mi East 15.0 mph 25.3 mph N/A   Overcast
3:25 AM 35.6 °F 25.9 °F 33.8 °F 93% 29.64 in 7.0 mi East 16.1 mph 28.8 mph N/A   Overcast
3:45 AM 35.6 °F 25.5 °F 33.8 °F 93% 29.64 in 5.0 mi East 17.3 mph 25.3 mph N/A   Overcast
4:05 AM 35.6 °F 25.9 °F 33.8 °F 93% 29.64 in 4.0 mi East 16.1 mph 26.5 mph N/A   Overcast
4:25 AM 35.6 °F 27.5 °F 33.8 °F 93% 29.63 in 5.0 mi East 11.5 mph 23.0 mph N/A   Overcast
4:45 AM 37.4 °F 29.8 °F 35.6 °F 93% 29.62 in 10.0 mi East 11.5 mph 26.5 mph N/A   Overcast
5:05 AM 39.2 °F 31.2 °F 35.6 °F 87% 29.61 in 7.0 mi East 13.8 mph 20.7 mph N/A   Overcast
5:25 AM 39.2 °F 31.2 °F 35.6 °F 87% 29.60 in 7.0 mi East 13.8 mph 29.9 mph N/A   Overcast
5:45 AM 39.2 °F 29.3 °F 35.6 °F 87% 29.59 in 7.0 mi East 20.7 mph 29.9 mph N/A   Overcast
6:05 AM 39.2 °F 30.2 °F 35.6 °F 87% 29.58 in 5.0 mi East 17.3 mph 29.9 mph N/A   Overcast
6:25 AM 39.2 °F 30.2 °F 35.6 °F 87% 29.58 in 10.0 mi East 17.3 mph 27.6 mph N/A   Overcast
6:45 AM 39.2 °F 29.8 °F 35.6 °F 87% 29.56 in 7.0 mi East 18.4 mph 26.5 mph N/A   Overcast
7:05 AM 39.2 °F 30.2 °F 35.6 °F 87% 29.56 in 5.0 mi ENE 17.3 mph 32.2 mph N/A   Overcast
7:25 AM 41.0 °F 31.4 °F 37.4 °F 87% 29.54 in 7.0 mi ENE 21.9 mph 26.5 mph N/A   Mostly Cloudy
7:45 AM 41.0 °F 32.2 °F 37.4 °F 87% 29.53 in 3.0 mi East 18.4 mph 32.2 mph N/A   Overcast
8:05 AM 41.0 °F 32.2 °F 37.4 °F 87% 29.51 in 3.0 mi ENE 18.4 mph 31.1 mph N/A   Overcast
8:25 AM 41.0 °F 32.2 °F 37.4 °F 87% 29.50 in 5.0 mi ENE 18.4 mph 33.4 mph N/A   Mostly Cloudy
8:45 AM 41.0 °F 31.9 °F 37.4 °F 87% 29.50 in 4.0 mi East 19.6 mph 36.8 mph N/A   Overcast
9:05 AM 41.0 °F 32.2 °F 37.4 °F 87% 29.49 in 4.0 mi ENE 18.4 mph 34.5 mph N/A   Overcast
9:25 AM 41.0 °F 32.2 °F 37.4 °F 87% 29.49 in 5.0 mi ENE 18.4 mph 29.9 mph N/A   Overcast
9:45 AM 41.0 °F 32.5 °F 37.4 °F 87% 29.48 in 4.0 mi NE 17.3 mph 32.2 mph N/A   Overcast
10:05 AM 41.0 °F 30.5 °F 37.4 °F 87% 29.48 in 5.0 mi NE 26.5 mph 39.1 mph N/A   Overcast
10:25 AM 41.0 °F 31.6 °F 37.4 °F 87% 29.48 in 5.0 mi NE 20.7 mph 33.4 mph N/A   Overcast
10:46 AM 41.0 °F 30.9 °F 37.4 °F 87% 29.47 in 4.0 mi NE 24.2 mph 38.0 mph N/A   Overcast
11:06 AM 39.2 °F 29.3 °F 35.6 °F 87% 29.46 in 2.5 mi NNE 20.7 mph 36.8 mph N/A   Overcast
11:26 AM 39.2 °F 28.7 °F 35.6 °F 87% 29.46 in 2.5 mi NNE 23.0 mph 34.5 mph N/A   Overcast
11:46 AM 39.2 °F 29.8 °F 35.6 °F 87% 29.46 in 2.5 mi NNE 18.4 mph 33.4 mph N/A   Overcast
12:06 PM 39.2 °F 28.3 °F 37.4 °F 93% 29.47 in 5.0 mi NNE 25.3 mph 35.7 mph N/A   Overcast
12:26 PM 39.2 °F 27.6 °F 35.6 °F 87% 29.47 in 2.5 mi NNE 28.8 mph 43.7 mph N/A   Overcast
12:46 PM 39.2 °F 28.5 °F 35.6 °F 87% 29.47 in 4.0 mi NNE 24.2 mph 33.4 mph N/A   Overcast
1:06 PM 39.2 °F 29.0 °F 35.6 °F 87% 29.47 in 5.0 mi NNE 21.9 mph 36.8 mph N/A   Mostly Cloudy
1:26 PM 39.2 °F 28.3 °F 35.6 °F 87% 29.48 in 3.0 mi NNE 25.3 mph 38.0 mph N/A   Overcast
1:46 PM 37.4 °F 26.4 °F 35.6 °F 93% 29.50 in 1.5 mi NNE 23.0 mph 35.7 mph N/A   Overcast
2:06 PM 37.4 °F 26.6 °F 33.8 °F 87% 29.50 in 3.0 mi NNE 21.9 mph 35.7 mph N/A   Overcast
2:26 PM 37.4 °F 26.6 °F 35.6 °F 93% 29.52 in 2.5 mi NNE 21.9 mph 40.3 mph N/A   Overcast
2:46 PM 37.4 °F 25.9 °F 35.6 °F 93% 29.54 in 2.0 mi NNE 25.3 mph 35.7 mph N/A   Overcast
3:06 PM 37.4 °F 26.6 °F 35.6 °F 93% 29.55 in 2.0 mi North 21.9 mph 33.4 mph N/A   Overcast
3:26 PM 37.4 °F 26.1 °F 33.8 °F 87% 29.57 in 3.0 mi North 24.2 mph 39.1 mph N/A   Overcast
3:44 PM 37.4 °F 26.9 °F 33.8 °F 87% 29.59 in 4.0 mi North 20.7 mph 33.4 mph N/A   Overcast
4:06 PM 37.4 °F 27.2 °F 35.6 °F 93% 29.60 in 4.0 mi North 19.6 mph 35.7 mph N/A   Overcast
4:26 PM 39.2 °F 29.3 °F 35.6 °F 87% 29.62 in 2.5 mi North 20.7 mph 39.1 mph N/A   Overcast
4:46 PM 39.2 °F 29.8 °F 35.6 °F 87% 29.64 in 4.0 mi North 18.4 mph 33.4 mph N/A   Overcast
5:06 PM 37.4 °F 26.6 °F 35.6 °F 93% 29.67 in 3.0 mi North 21.9 mph 32.2 mph N/A   Overcast
5:26 PM 37.4 °F 26.1 °F 33.8 °F 87% 29.69 in 2.5 mi North 24.2 mph 33.4 mph N/A   Overcast
5:46 PM 37.4 °F 24.8 °F 33.8 °F 87% 29.71 in 3.0 mi North 31.1 mph 40.3 mph N/A   Overcast
6:06 PM 37.4 °F 26.9 °F 33.8 °F 87% 29.73 in 7.0 mi North 20.7 mph 34.5 mph N/A   Overcast
6:26 PM 37.4 °F 27.2 °F 33.8 °F 87% 29.75 in 10.0 mi North 19.6 mph 31.1 mph N/A   Mostly Cloudy
6:46 PM 37.4 °F 26.9 °F 33.8 °F 87% 29.77 in 7.0 mi North 20.7 mph 41.4 mph N/A   Overcast
7:07 PM 37.4 °F 26.4 °F 33.8 °F 87% 29.78 in 10.0 mi North 23.0 mph 31.1 mph N/A   Overcast
7:27 PM 39.2 °F 29.8 °F 33.8 °F 81% 29.79 in 10.0 mi North 18.4 mph 28.8 mph N/A   Mostly Cloudy
8:07 PM 39.2 °F 29.8 °F 33.8 °F 81% 29.81 in 10.0 mi North 18.4 mph 26.5 mph N/A   Mostly Cloudy
8:27 PM 39.2 °F 29.3 °F 33.8 °F 81% 29.82 in 10.0 mi North 20.7 mph 31.1 mph N/A   Mostly Cloudy
8:47 PM 39.2 °F 28.7 °F 33.8 °F 81% 29.83 in 10.0 mi North 23.0 mph 32.2 mph N/A   Scattered Clouds
9:07 PM 37.4 °F 26.6 °F 33.8 °F 87% 29.84 in 10.0 mi North 21.9 mph 34.5 mph N/A   Mostly Cloudy
9:27 PM 37.4 °F 26.9 °F 33.8 °F 87% 29.85 in 10.0 mi North 20.7 mph 31.1 mph N/A   Mostly Cloudy
10:07 PM 37.4 °F 26.9 °F 32.0 °F 81% 29.87 in 10.0 mi North 20.7 mph 27.6 mph N/A   Mostly Cloudy
10:27 PM 35.6 °F 24.5 °F 32.0 °F 87% 29.87 in 10.0 mi North 20.7 mph 33.4 mph N/A   Mostly Cloudy
10:47 PM 37.4 °F 27.2 °F 32.0 °F 81% 29.88 in 10.0 mi North 19.6 mph 28.8 mph N/A   Scattered Clouds
11:07 PM 39.2 °F 30.5 °F 32.0 °F 75% 29.88 in 10.0 mi North 16.1 mph 27.6 mph N/A   Scattered Clouds
11:27 PM 39.2 °F 30.8 °F 32.0 °F 75% 29.88 in 10.0 mi North 15.0 mph 26.5 mph N/A   Scattered Clouds
11:47 PM 39.2 °F 30.2 °F 32.0 °F 75% 29.89 in 10.0 mi North 17.3 mph 28.8 mph N/A   Mostly Cloudy